User: anonymous   Login
Location: Unspecified
(0.0000°N, 0.0000°E)
Time: 04:45:43
(UTC+00:00)
Language:

N. Korean satellite - Orbit

View from above orbital plane
View from above orbital plane
View from above satellite
View from above satellite

Ground track
Ground track

The orbit data is extracted from the following two-line orbital elements,

1 39026U 12072A   18116.57256278 +.00001622 +00000-0 +63278-4 0  9992
2 39026 097.2124 128.6951 0040457 144.1999 216.1965 15.26581194297725
Epoch (UTC): 26 April 2018 13:44:29
Eccentricity: 0.0040457
inclination: 97.2124°
perigee height: 458 km
apogee height: 514 km
right ascension of ascending node: 128.6951°
argument of perigee: 144.1999°
revolutions per day: 15.26581194
mean anomaly at epoch: 216.1965°
orbit number at epoch: 29772

The dashed part of the orbit path shows where the satellite is in the earth's shadow,  

DLR